Content
SEND FEEDBACK

Daily
Averages
Monthly
Summary
United States of America

SEDONA, ARIZONA


Home > North America > United States > Arizona
Elevation: 4827 feet     Latitude: 34 51N     Longitude: 111 47W

WEATHER
 
SELECT A DAY
Number of Records: 142,419;   Date Range: 1/4/95 - 12/27/14
 
SHARE

PRINT THIS DATA

[ ← Previous Day ]
WEATHER ALMANAC - NOVEMBER 9, 2013
[ Next Day → ]
[ °C ]   °F
Weather ElementAverageHighLow
Temperature57.9 °F71.6 °F (2:55 pm)46.4 °F (7:15 am)
Dewpoint27.4 °F30.2 °F (10:35 am)26.6 °F (12:35 am)
Humidity32.1 %46 % (7:15 am)19 % (2:55 pm)
Barometer30.20 in30.24 in (8:55 am)30.16 in (1:55 am)
Wind Speed7.4 mph13.8 mph (2:35 am)
Wind Gust16.1 mph (6:35 am)
Weather ElementAverage
Visibility10 mi
Wind DirectionE (92.8 °)

Weather ElementTotal
Precipitation---
Heating Degree Days6 (Base 65)
Growing Degree Days9 (Base 50)
Averaged from 69 records on November 9, 2013
WEATHER CONDITIONS BREAKOUT
WIND DIRECTION BREAKOUT
WEATHER BY HOUR - NOVEMBER 9, 2013
[ °C ]   °F
Local TimeTemperatureDewpointHumidityBarometerVisibilityWind DirectionWind SpeedGust SpeedPrecipitationEventsConditions
12:35 AM51.8 °F26.6 °F38 %30.17 in10.0 miNE (40°)10.4 mphClear
12:55 AM51.8 °F26.6 °F38 %30.17 in10.0 miNE (40°)12.7 mphClear
1:15 AM51.8 °F26.6 °F38 %30.17 in10.0 miNE (40°)12.7 mphClear
1:35 AM51.8 °F26.6 °F38 %30.17 in10.0 miNE (40°)11.5 mphClear
1:55 AM50.0 °F26.6 °F40 %30.16 in10.0 miNE (40°)12.7 mphClear
2:15 AM50.0 °F26.6 °F40 %30.16 in10.0 miNE (40°)12.7 mphClear
2:35 AM50.0 °F26.6 °F40 %30.16 in10.0 miNE (40°)13.8 mphClear
2:55 AM50.0 °F26.6 °F40 %30.16 in10.0 miNE (40°)13.8 mphClear
3:15 AM50.0 °F26.6 °F40 %30.16 in10.0 miNE (40°)13.8 mphClear
3:35 AM50.0 °F26.6 °F40 %30.16 in10.0 miNE (40°)13.8 mphClear
3:55 AM50.0 °F26.6 °F40 %30.16 in10.0 miNE (40°)13.8 mphClear
4:15 AM50.0 °F26.6 °F40 %30.16 in10.0 miNE (50°)12.7 mphClear
4:35 AM50.0 °F26.6 °F40 %30.16 in10.0 miNE (50°)12.7 mphClear
4:55 AM50.0 °F26.6 °F40 %30.17 in10.0 miNE (50°)11.5 mphClear
5:15 AM50.0 °F26.6 °F40 %30.18 in10.0 miNE (50°)10.4 mphClear
5:35 AM50.0 °F26.6 °F40 %30.18 in10.0 miNE (50°)11.5 mphClear
5:55 AM50.0 °F26.6 °F40 %30.18 in10.0 miNE (50°)12.7 mphClear
6:15 AM50.0 °F26.6 °F40 %30.18 in10.0 miENE (60°)9.2 mphClear
6:35 AM48.2 °F26.6 °F43 %30.19 in10.0 miNE (50°)12.7 mph16.1 mphClear
6:55 AM50.0 °F26.6 °F40 %30.19 in10.0 miNE (50°)11.5 mphClear
7:15 AM46.4 °F26.6 °F46 %30.19 in10.0 miNE (40°)11.5 mphClear
7:35 AM50.0 °F26.6 °F40 %30.20 in10.0 miNE (40°)11.5 mphClear
7:55 AM51.8 °F26.6 °F38 %30.21 in10.0 miENE (70°)8.1 mphClear
8:15 AM53.6 °F26.6 °F35 %30.23 in10.0 miEast (100°)3.5 mphClear
8:35 AM53.6 °F28.4 °F38 %30.23 in10.0 miCalmClear
8:55 AM53.6 °F28.4 °F38 %30.24 in10.0 miCalmClear
9:15 AM55.4 °F28.4 °F36 %30.24 in10.0 miSE (130°)3.5 mphClear
9:35 AM59.0 °F28.4 °F31 %30.24 in10.0 miESE (120°)5.8 mphClear
9:55 AM59.0 °F28.4 °F31 %30.24 in10.0 miSE (130°)3.5 mphClear
10:15 AM60.8 °F28.4 °F29 %30.24 in10.0 miSouth (170°)3.5 mphClear
10:35 AM62.6 °F30.2 °F30 %30.24 in10.0 miSouth (170°)4.6 mphClear
10:55 AM66.2 °F30.2 °F26 %30.24 in10.0 miSSE (150°)5.8 mphClear
11:15 AM64.4 °F28.4 °F26 %30.24 in10.0 miSouth (170°)6.9 mphClear
11:35 AM66.2 °F30.2 °F26 %30.24 in10.0 miSouth (170°)4.6 mphClear
11:55 AM68.0 °F30.2 °F24 %30.23 in10.0 miSSW (200°)6.9 mphClear
12:15 PM68.0 °F28.4 °F23 %30.22 in10.0 miSSW (200°)4.6 mphClear
12:35 PM68.0 °F28.4 °F23 %30.21 in10.0 miWest (270°)3.5 mphClear
12:55 PM68.0 °F28.4 °F23 %30.20 in10.0 miNW (320°)3.5 mphClear
1:15 PM69.8 °F28.4 °F21 %30.20 in10.0 miWNW (290°)6.9 mphClear
1:35 PM68.0 °F26.6 °F21 %30.19 in10.0 miWest (270°)3.5 mphClear
1:55 PM68.0 °F26.6 °F21 %30.18 in10.0 miWest (280°)6.9 mphClear
2:15 PM68.0 °F26.6 °F21 %30.18 in10.0 miCalmClear
2:35 PM69.8 °F28.4 °F21 %30.17 in10.0 miCalmClear
2:55 PM71.6 °F26.6 °F19 %30.17 in10.0 miSSW (210°)3.5 mphClear
3:15 PM69.8 °F26.6 °F20 %30.17 in10.0 miWNW (300°)4.6 mphClear
3:35 PM69.8 °F26.6 °F20 %30.17 in10.0 miWest (280°)5.8 mphClear
3:55 PM69.8 °F28.4 °F21 %30.17 in10.0 miSW (220°)3.5 mphClear
4:15 PM68.0 °F28.4 °F23 %30.17 in10.0 miCalmClear
4:35 PM68.0 °F28.4 °F23 %30.17 in10.0 miSouth (190°)3.5 mphClear
4:55 PM68.0 °F28.4 °F23 %30.17 in10.0 miCalmClear
5:15 PM64.4 °F28.4 °F26 %30.17 in10.0 miWSW (240°)3.5 mphClear
5:35 PM62.6 °F28.4 °F27 %30.18 in10.0 miWest (260°)3.5 mphClear
5:55 PM62.6 °F28.4 °F27 %30.18 in10.0 miCalmClear
6:15 PM62.6 °F28.4 °F27 %30.18 in10.0 miCalmClear
6:35 PM64.4 °F28.4 °F26 %30.19 in10.0 miCalmClear
7:35 PM59.0 °F28.4 °F31 %30.19 in10.0 miNE (50°)11.5 mphClear
7:55 PM59.0 °F28.4 °F31 %30.19 in10.0 miNE (40°)11.5 mphClear
8:15 PM57.2 °F26.6 °F31 %30.21 in10.0 miNE (50°)9.2 mphClear
8:35 PM57.2 °F26.6 °F31 %30.21 in10.0 miENE (70°)3.5 mphClear
8:55 PM59.0 °F26.6 °F29 %30.22 in10.0 miCalmClear
9:15 PM55.4 °F26.6 °F33 %30.22 in10.0 miNE (40°)6.9 mphClear
9:35 PM55.4 °F26.6 °F33 %30.23 in10.0 miNNE (30°)9.2 mphClear
9:55 PM53.6 °F26.6 °F35 %30.23 in10.0 miNNE (30°)9.2 mphClear
10:15 PM53.6 °F26.6 °F35 %30.24 in10.0 miNNE (30°)11.5 mphClear
10:35 PM53.6 °F26.6 °F35 %30.24 in10.0 miNNE (30°)10.4 mphClear
10:55 PM53.6 °F26.6 °F35 %30.24 in10.0 miNNE (30°)10.4 mphClear
11:15 PM51.8 °F26.6 °F38 %30.23 in10.0 miNNE (30°)11.5 mphClear
11:35 PM51.8 °F26.6 °F38 %30.23 in10.0 miNE (40°)11.5 mphClear
11:55 PM51.8 °F26.6 °F38 %30.23 in10.0 miNE (40°)12.7 mphClear
Hourly data recorded from KSEZ, located miles away from Sedona, Arizona







STORIES FROM OUR PARTNERS